Regional Weather Roundup
Issued by NWS

Home | Current Version | Previous Version | Text Only | Print | Product List | Glossary On
Versions: 1 2 3 4 5 6 7 8 9 10 11 12 13 14 15 16 17 18 19 20 21 22 23 24 25 26 27 28 29 30 31 32 33 34 35 36 37 38 39 40 41 42 43 44 45 46 47 48 49 50
000
ASUS45 KBOU 021410
RWRCO

WEATHER ROUNDUP FOR COLORADO
NATIONAL WEATHER SERVICE DENVER/BOULDER CO
800 AM MDT SUN AUG 02 2015

NOTE: "FAIR" INDICATES FEW OR NO CLOUDS BELOW 12000 FEET WITH NO
SIGNIFICANT WEATHER AND/OR OBSTRUCTIONS TO VISIBILITY.

COZ001>005-013-030-031-021500-
...NORTHWEST COLORADO...

CITY           SKY/WX    TMP DP  RH WIND       PRES   REMARKS
CRAIG          SUNNY     58  45  62 CALM      30.22S
HAYDEN         SUNNY     59  39  47 E10       30.24S
MEEKER         MOSUNNY   60  45  57 CALM      30.23S
MOUNT WERNER   NOT AVBL
STEAMBOAT SPGS SUNNY     55  42  63 CALM      30.27S
WALDEN         SUNNY     54  39  58 CALM      30.34S
$$

COZ006>008-011-021500-
...WEST CENTRAL VALLEYS...

CITY           SKY/WX    TMP DP  RH WIND       PRES   REMARKS
GRAND JUNCTION CLOUDY    71  53  52 SE10      30.12R
MONTROSE       CLOUDY    64  56  75 SE3       30.22R
EAGLE          MOSUNNY   61  46  59 CALM      30.28R
RIFLE          PTSUNNY   65  51  60 CALM      30.18R
DELTA          CLOUDY    69  54  57 CALM      30.18R
NUCLA          RAIN      61  59  94 E3        30.29R
$$

COZ017>023-064>068-021500-
...SOUTHWEST COLORADO...

CITY           SKY/WX    TMP DP  RH WIND       PRES   REMARKS
DURANGO        PTSUNNY   59  52  77 CALM      30.26R
CORTEZ         CLOUDY    61  60  97 NE6       30.22S
PAGOSA SPRINGS PTSUNNY   58  55  90 CALM      30.33R
TELLURIDE      CLOUDY    53  51  93 CALM      30.43R
WOLF CREEK PAS NOT AVBL
$$

COZ009-010-012-014-032>034-037-058>063-021500-
...CENTRAL COLORADO...

CITY           SKY/WX    TMP DP  RH WIND       PRES   REMARKS
ASPEN          CLOUDY    60  48  64 S3        30.32R
BUENA VISTA    PTSUNNY   60  47  62 CALM      30.33S
COPPER MTN     PTSUNNY   54  34  47 W7        30.63R
BERTHOUD PASS  CLOUDY    45  34  65 N7        30.68S
COTTONWOOD PAS PTSUNNY   59  39  47 CALM      30.45S
GUNNISON       CLOUDY    55  52  88 CALM      30.38R
KREMMLING      MOSUNNY   52  37  58 CALM      30.34S
LEADVILLE      CLOUDY    53  43  68 CALM      30.46S
MONARCH PASS   CLOUDY    50  36  57 CALM      30.72R
SALIDA         PTSUNNY   63  47  56 NW3       30.38R
SUNLIGHT       CLOUDY    55  45  67 CALM      30.56R
WILKERSON PASS CLOUDY    54  36  50 N3        30.59R
$$

COZ069>075-021500-
...SAN LUIS VALLEY/SANGRE DE CRISTO MOUNTAINS...

CITY           SKY/WX    TMP DP  RH WIND       PRES   REMARKS
ALAMOSA        PTSUNNY   57  50  77 SW3       30.31S
LA VETA PASS   MOSUNNY   45  43  93 MISG      30.47R
SAGUACHE       CLOUDY    61  48  63 NW8       30.34R
$$

COZ035-036-038>040-021500-
...NORTHERN COLORADO FRONT RANGE...

CITY           SKY/WX    TMP DP  RH WIND       PRES   REMARKS
DENVER INTL AP MOSUNNY   71  53  52 CALM      30.10S
DMNS CITY PARK   N/A     74  54  49 SE7       30.10S
AURORA         PTSUNNY   70  53  54 S5        30.13R
FRONT RANGE AP NOT AVBL
ERIE MUNI ARPT MOSUNNY   69  55  61 CALM      30.08S
BOULDER MUN AP MOSUNNY   72  45  37 W3        30.08S
CENTENNIAL     PTSUNNY   70  50  49 S5        30.14R
BROOMFIELD     PTSUNNY   72  48  43 S5        30.12S
FORT COLLINS   SUNNY     68  54  60 CALM      30.09R
LONGMONT       SUNNY     70  52  52 CALM      30.09S
$$

COZ041-046-047-076>085-087-088-021500-
...PIKES PEAK/PALMER DIVIDE AND SOUTHERN FOOTHILLS...

CITY           SKY/WX    TMP DP  RH WIND       PRES   REMARKS
COLO. SPRINGS  MOSUNNY   74  48  39 N6        30.16S
A. F. ACADEMY  MOSUNNY   72  49  43 N2        30.18S
ELLICOTT       MOSUNNY  N/A N/A N/A E3        30.15R
FALCON         MOSUNNY   73  49  42 N3        30.22S
FORT CARSON    MOSUNNY   72  49  45 VRB2      30.13R
LIMON          MOSUNNY   73  51  46 NW3       30.11S
MONUMENT HILL  NOT AVBL
TRINIDAD       MOSUNNY   66  52  60 W10       30.16R
$$

COZ042>045-048>051-090-091-021500-
...NORTHEAST COLORADO...

CITY           SKY/WX    TMP DP  RH WIND       PRES   REMARKS
GREELEY ARPT   SUNNY     64  55  72 N3        30.07S
AKRON          SUNNY     74  52  46 SW10      30.06R
BURLINGTON     MOSUNNY   73  66  78 CALM      30.05R
WRAY           SUNNY     72  64  77 SW3       30.01S
STERLING       SUNNY     70  61  73 S3        30.02R
HOLYOKE        SUNNY     73  66  78 CALM      30.01
FORT MORGAN    SUNNY     66  55  67 SW3       30.06R
$$

COZ086-089-092>099-021500-
...SOUTHEAST COLORADO...

CITY           SKY/WX    TMP DP  RH WIND       PRES   REMARKS
PUEBLO         PTSUNNY   71  60  68 SE6       30.07R
LA JUNTA       MOSUNNY   76  56  49 CALM      30.05R
LAMAR          SUNNY     75  59  57 NW6       30.00S
SPRINGFIELD      N/A     71  67  87 VRB3      30.05F
$$



USA.gov is the U.S. government's official web portal to all federal, state and local government web resources and services.